Location: Parc des �les de St-Timoth�e
(45.2924°N, 74.0481°W)
Time: 01:21:19
(UTC-04:00)

ISS - All Passes

Search period start: 24 April 2017 00:00
Search period end: 04 May 2017 00:00
Orbit: 400 x 409 km, 51.6° (Epoch: 24 April)

Date Brightness Start Highest point End Pass type
(mag) Time Alt. Az. Time Alt. Az. Time Alt. Az.
24 Apr - 08:56:44 10° SSE 08:58:19 13° SE 08:59:55 10° ESE daylight
24 Apr - 10:31:05 10° WSW 10:34:21 86° SSE 10:37:37 10° ENE daylight
24 Apr - 12:08:11 10° WNW 12:11:06 29° N 12:14:01 10° NE daylight
24 Apr - 13:45:18 10° NW 13:48:11 28° N 13:51:04 10° ENE daylight
24 Apr - 15:21:44 10° WNW 15:25:00 82° NNE 15:28:15 10° ESE daylight
24 Apr - 16:59:05 10° W 17:01:06 15° SW 17:03:07 10° S daylight
25 Apr - 09:38:58 10° SW 09:42:08 49° SE 09:45:17 10° ENE daylight
25 Apr - 11:15:38 10° W 11:18:41 36° NNW 11:21:45 10° NE daylight
25 Apr - 12:52:56 10° NW 12:55:44 26° N 12:58:32 10° ENE daylight
25 Apr - 14:29:29 10° NW 14:32:41 52° NNE 14:35:53 10° ESE daylight
25 Apr - 16:06:12 10° W 16:09:01 27° SW 16:11:49 10° SSE daylight
26 Apr - 08:47:08 10° SSW 08:49:58 28° SE 08:52:48 10° E daylight
26 Apr - 10:23:07 10° W 10:26:19 51° NNW 10:29:30 10° NE daylight
26 Apr - 12:00:28 10° WNW 12:03:16 26° N 12:06:04 10° ENE daylight
26 Apr - 13:37:14 10° NW 13:40:19 37° NNE 13:43:22 10° E daylight
26 Apr - 15:13:42 10° WNW 15:16:52 47° SW 15:20:00 10° SE daylight
27 Apr - 07:55:47 10° S 07:57:52 16° SE 07:59:57 10° E daylight
27 Apr - 09:30:43 10° WSW 09:33:58 80° NNW 09:37:14 10° ENE daylight
27 Apr - 11:07:55 10° WNW 11:10:47 28° N 11:13:40 10° NE daylight
27 Apr - 12:44:57 10° NW 12:47:52 30° NNE 12:50:48 10° ENE daylight
27 Apr - 14:21:21 10° WNW 14:24:37 84° SSW 14:27:52 10° ESE daylight
27 Apr - 15:59:08 10° WSW 16:00:37 13° SW 16:02:07 10° SSW daylight
28 Apr - 08:38:29 10° SW 08:41:42 60° SSE 08:44:55 10° ENE daylight
28 Apr - 10:15:19 10° W 10:18:20 33° NNW 10:21:20 10° NE daylight
28 Apr - 11:52:34 10° NW 11:55:23 26° N 11:58:12 10° ENE daylight
28 Apr - 13:29:04 10° WNW 13:32:18 60° NNE 13:35:31 10° ESE daylight
28 Apr - 15:05:56 10° W 15:08:32 22° SW 15:11:08 10° S daylight
29 Apr - 07:46:29 10° SSW 07:49:28 34° SE 07:52:27 10° ENE daylight
29 Apr - 09:22:45 10° W 09:25:53 44° NNW 09:29:02 10° NE daylight
29 Apr - 11:00:06 10° WNW 11:02:53 25° N 11:05:40 10° ENE daylight
29 Apr - 12:36:47 10° NW 12:39:53 41° NNE 12:43:00 10° E daylight
29 Apr - 14:13:18 10° WNW 14:16:22 39° SW 14:19:25 10° SSE daylight
30 Apr - 06:54:53 10° S 06:57:18 19° SE 06:59:44 10° E daylight
30 Apr - 08:30:15 10° WSW 08:33:30 68° NNW 08:36:45 10° ENE daylight
30 Apr - 10:07:31 10° WNW 10:10:22 27° N 10:13:12 10° NE daylight
30 Apr - 11:44:28 10° NW 11:47:26 32° NNE 11:50:24 10° E daylight
30 Apr - 13:20:52 10° WNW 13:24:07 70° SSW 13:27:21 10° SE daylight
30 Apr - 14:59:40 10° SW 15:00:02 10° SW 15:00:24 10° SW daylight
01 May - 06:04:17 10° SSE 06:05:12 11° SE 06:06:08 10° ESE daylight
01 May - 07:37:55 10° SW 07:41:09 74° SSE 07:44:25 10° ENE daylight
01 May - 09:14:53 10° WNW 09:17:51 31° NNW 09:20:49 10° NE daylight
01 May - 10:52:04 10° NW 10:54:55 27° N 10:57:46 10° ENE daylight
01 May - 12:28:31 10° WNW 12:31:46 71° NNE 12:35:01 10° ESE daylight
01 May - 14:05:36 10° W 14:07:56 18° SW 14:10:15 10° S daylight
02 May - 06:45:46 10° SW 06:48:51 41° SE 06:51:58 10° ENE daylight
02 May - 08:22:16 10° W 08:25:22 40° NNW 08:28:28 10° NE daylight
02 May - 09:59:35 10° WNW 10:02:23 25° N 10:05:10 10° ENE daylight
02 May - 11:36:11 10° NW 11:39:22 46° NNE 11:42:31 10° E daylight
02 May - 13:12:48 10° WNW 13:15:45 32° SW 13:18:41 10° SSE daylight
03 May - 05:53:58 10° SSW 05:56:39 23° SE 05:59:19 10° E daylight
03 May - 07:29:41 10° WSW 07:32:55 58° NNW 07:36:08 10° NE daylight
03 May - 09:07:00 10° WNW 09:09:49 26° N 09:12:38 10° NE daylight
03 May - 10:43:51 10° NW 10:46:53 34° NNE 10:49:54 10° E daylight
03 May - 12:20:17 10° WNW 12:23:30 57° SSW 12:26:41 10° SE daylight
